CAPE
0 0 0 0 0 0 0 0 0 0 0 0 0 0 0 0 0 0 0 0 0 0 0 0 0 0 0 0 0 0 0 0 0 0 0 0 0 0 0 0 0 0 0 0 0
0 0 0 0 0 1 0 0 0 0 0 0 0 0 0 0 0 0 0 0 0 0 0 0 0 0 0 0 0 0 0 0 0 0 0 0 0 0 0 0 0 0 0 0 0
0 0 0 0 0 0 0 0 0 0 0 0 0 0 0 0 0 0 0 0 0 0 0 0 0 0 0 0 0 0 0 0 0 0 0 0 0 0 0 0 0 0 0 0 0
0 0 0 0 0 0 1 0 0 0 0 0 0 0 0 0 0 0 0 0 0 0 0 0 0 0 0 0 0 0 0 0 0 0 0 0 0 0 0 0 0 0 0 0 0
0 0 0 0 0 0 0 0 0 0 0 0 0 0 0 0 0 0 0 0 0 0 0 0 0 0 0 0 0 0 0 0 0 0 0 0 0 0 0 0 0 0 0 0 0
0 0 0 0 0 0 0 0 0 0 0 0 0 0 0 0 0 0 0 0 0 0 0 0 0 0 0 0 0 0 0 0 0 0 0 0 0 0 0 0 0 0 0 0 0
0 0 0 0 0 0 0 0 0 0 0 0 0 0 0 0 0 0 0 0 0 0 0 0 0 0 0 0 0 0 0 0 0 0 0 0 0 0 0 0 0 0 0 0 0
2 0 0 0 0 0 0 0 0 0 0 0 0 0 0 0 0 0 0 0 0 0 0 0 0 0 0 0 0 0 0 0 0 0 0 0 0 0 0 0 0 0 0 0 0
8 2 1 1 0 0 0 0 0 0 0 0 0 0 0 0 0 0 0 0 0 0 0 0 0 0 0 0 0 0 0 0 0 0 0 0 0 0 0 0 0 0 0 0 0
0 0 0 0 0 0 0 0 0 0 0 0 0 0 0 0 0 0 0 0 0 0 0 0 0 0 0 0 0 0 0 0 0 0 0 0 0 0 0 0 0 0 0 0 0
0 0 0 0 1 0 0 0 0 0 0 0 0 0 0 0 0 0 0 0 0 0 0 0 0 0 0 0 0 0 0 0 0 0 0 0 0 0 0 0 0 0 0 0 0
0 0 0 0 0 0 0 0 0 0 0 0 0 0 0 0 0 0 0 0 0 0 0 0 0 0 0 0 0 0 0 0 0 0 0 0 0 0 0 0 0 0 0 0 0
0 0 0 1 0 0 0 0 0 0 0 0 0 0 0 0 0 0 0 0 0 0 0 0 0 0 0 0 0 0 0 0 0 0 0 0 0 0 0 0 0 0 0 0 0
2 0 0 0 0 0 0 0 0 0 0 0 0 0 0 0 0 0 0 0 0 0 0 0 0 0 0 0 0 0 0 0 0 0 0 0 0 0 0 0 0 0 0 0 0
7 1 0 0 0 0 0 0 0 0 0 0 0 0 0 0 0 0 0 0 0 0 0 0 0 0 0 0 0 0 0 0 0 0 0 0 0 0 0 0 0 0 0 0 0
4 0 0 0 0 0 0 0 0 0 0 0 0 0 0 0 0 0 0 0 0 0 0 0 0 0 0 0 0 0 0 0 0 0 0 0 0 0 0 0 0 0 0 0 0
8 0 0 0 0 0 0 0 0 0 0 0 0 0 0 0 0 0 0 0 0 0 0 0 0 0 0 0 0 0 0 0 0 0 0 0 0 0 0 0 0 0 0 0 0
20 0 0 0 0 0 0 0 0 0 0 0 0 0 0 0 0 0 0 0 0 0 2 0 0 0 0 0 0 0 0 0 0 0 0 0 0 0 0 0 0 0 0 0 0
13 0 0 0 0 0 0 0 0 0 0 0 0 0 0 0 0 0 0 0 0 0 0 0 0 0 0 0 0 0 0 0 0 0 0 0 0 0 0 0 0 0 0 0 0
11 0 0 0 0 0 0 0 0 0 0 0 0 0 0 0 0 0 0 0 0 0 0 0 0 0 0 0 0 0 0 0 0 0 0 0 0 0 0 0 0 0 0 0 0
16 0 0 0 0 3 0 0 0 0 0 0 0 0 0 0 0 0 0 0 0 0 0 0 0 0 0 0 0 0 0 0 0 0 0 0 0 0 0 0 0 0 0 0 0
17 0 0 0 0 0 1 0 0 0 1 0 0 0 0 0 0 0 0 0 0 0 0 0 0 0 0 0 0 0 0 0 0 0 0 0 0 0 0 0 0 0 0 0 0
3 0 0 0 0 0 0 0 0 0 1 0 0 0 0 0 0 0 0 0 0 0 0 0 0 0 0 0 0 0 0 0 0 0 0 0 0 0 0 0 0 0 0 0 0
0 0 0 0 0 0 0 0 0 0 0 2 1 0 0 0 0 0 0 0 0 0 0 0 0 0 0 0 0 0 0 0 0 0 0 0 0 0 0 0 0 0 0 0 0
9 0 0 0 0 0 0 0 0 0 0 1 0 0 0 0 0 0 0 0 0 1 0 0 0 0 0 0 0 0 0 0 0 0 0 0 0 0 0 0 0 0 0 0 0
10 0 0 1 0 0 1 0 0 0 0 0 0 0 0 0 0 0 0 0 0 0 0 0 0 0 0 0 0 0 0 0 0 0 0 0 0 0 0 0 0 0 0 0 0
23 3 1 0 0 0 0 0 0 0 0 0 0 0 0 0 0 0 0 0 0 0 0 0 0 0 0 0 0 0 0 0 0 0 0 0 0 0 0 0 0 0 0 0 0
CIN
0 0 0 0 0 0 0 0 0 0 0 0 0 0 0 0 0 0 0 0 0 0 0 0 0 0 0 0 0 0 0 0 0 0 0 0 0 0 0 0 0 0 0 0 0
0 0 0 0 0 0 0 0 0 0 0 0 0 0 0 0 0 0 0 0 0 0 0 0 0 0 0 0 0 0 0 0 0 0 0 0 0 0 0 0 0 0 0 0 0
0 0 0 0 0 0 0 0 0 0 0 0 0 0 0 0 0 0 0 0 0 0 0 0 0 0 0 0 0 0 0 0 0 0 0 0 0 0 0 0 0 0 0 0 0
0 0 0 0 0 0 0 0 0 0 0 0 0 0 0 0 0 0 0 0 0 0 0 0 0 0 0 0 0 0 0 0 0 0 0 0 0 0 0 0 0 0 0 0 0
0 0 0 0 0 0 0 0 0 0 0 0 0 0 0 0 0 0 0 0 0 0 0 0 0 0 0 0 0 0 0 0 0 0 0 0 0 0 0 0 0 0 0 0 0
0 0 0 0 0 0 0 0 0 0 0 0 0 0 0 0 0 0 0 0 0 0 0 0 0 0 0 0 0 0 0 0 0 0 0 0 0 0 0 0 0 0 0 0 0
0 0 0 0 0 0 0 0 0 0 0 0 0 0 0 0 0 0 0 0 0 0 0 0 0 0 0 0 0 0 0 0 0 0 0 0 0 0 0 0 0 0 0 0 0
-3 -1 0 0 0 0 0 0 0 0 0 0 0 0 0 0 0 0 0 0 0 0 0 0 0 0 0 0 0 0 0 0 0 0 0 0 0 0 0 0 0 0 0 0 0
-4 -5 -1 0 0 0 0 0 0 0 0 0 0 0 0 0 0 0 0 0 0 0 0 0 0 0 0 0 0 0 0 0 0 0 0 0 0 0 0 0 0 0 0 0 0
0 0 0 0 0 0 0 0 0 0 0 0 0 0 0 0 0 0 0 0 0 0 0 0 0 0 0 0 0 0 0 0 0 0 0 0 0 0 0 0 0 0 0 0 0
0 0 0 0 0 0 0 0 0 0 0 0 0 0 0 0 0 0 0 0 0 0 0 0 0 0 0 0 0 0 0 0 0 0 0 0 0 0 0 0 0 0 0 0 0
0 0 0 0 0 0 0 0 0 0 0 0 0 0 0 0 0 0 0 0 0 0 0 0 0 0 0 0 0 0 0 0 0 0 0 0 0 0 0 0 0 0 0 0 0
0 0 0 0 0 0 0 0 0 0 0 0 0 0 0 0 0 0 0 0 0 0 0 0 0 0 0 0 0 0 0 0 0 0 0 0 0 0 0 0 0 0 0 0 0
0 0 0 0 0 0 0 0 0 0 0 0 0 0 0 0 0 0 0 0 0 0 0 0 0 0 0 0 0 0 0 0 0 0 0 0 0 0 0 0 0 0 0 0 0
-1 0 0 0 0 0 0 0 0 0 0 0 0 0 0 0 0 0 0 0 0 0 0 0 0 0 0 0 0 0 0 0 0 0 0 0 0 0 0 0 0 0 0 0 0
-1 0 0 0 0 0 0 0 0 0 0 0 0 0 0 0 0 0 0 0 0 0 0 0 0 0 0 0 0 0 0 0 0 0 0 0 0 0 0 0 0 0 0 0 0
-3 -1 0 0 0 0 0 0 0 0 0 0 0 0 0 0 0 0 0 0 0 0 0 0 0 0 0 0 0 0 0 0 0 0 0 0 0 0 0 0 0 0 0 0 0
0 0 0 0 0 0 0 0 0 0 0 0 0 0 0 0 0 0 0 0 0 0 0 0 0 0 0 0 0 0 0 0 0 0 0 0 0 0 0 0 0 0 0 0 0
-6 0 0 0 0 0 0 0 0 0 0 0 0 0 0 0 0 0 0 0 0 0 0 0 0 0 0 0 0 0 0 0 0 0 0 0 0 0 0 0 0 0 0 0 0
-1 -5 0 0 0 -5 0 0 0 -1 0 0 0 0 0 0 0 0 0 0 0 0 0 0 0 0 0 0 0 0 0 0 0 0 0 0 0 0 0 0 0 0 0 0 0
-2 -1 0 0 0 -6 0 0 0 0 0 0 0 0 0 0 0 0 0 0 0 0 0 0 0 0 0 0 0 0 0 0 0 0 0 0 0 0 0 0 0 0 0 0 0
-7 0 0 0 -1 0 -2 0 0 0 0 0 0 0 0 0 0 0 0 0 0 0 0 0 0 0 0 0 0 0 0 0 0 0 0 0 0 0 0 0 0 0 0 0 0
-4 0 0 0 0 0 0 0 0 0 0 0 0 0 0 0 0 0 0 0 0 0 0 0 0 0 0 0 0 0 0 0 0 0 0 0 0 0 0 0 0 0 0 0 0
-11 0 -1 0 0 0 0 -1 -1 0 0 0 0 0 0 0 0 0 0 0 0 0 0 0 0 0 0 0 0 0 0 0 0 0 0 0 0 0 0 0 0 0 0 0 0
-7 0 0 0 -1 0 -1 0 0 -1 0 0 0 0 0 0 0 0 0 0 0 0 0 0 0 0 0 0 0 0 0 0 0 0 0 0 0 0 0 0 0 0 0 0 0
-1 0 0 -4 -6 0 -6 0 -1 0 0 0 0 0 0 0 0 0 0 0 0 0 0 0 0 0 0 0 0 0 0 0 0 0 0 0 0 0 0 0 0 0 0 0 0
-10 -22 -11 -3 -3 -2 0 0 0 -10 0 0 0 -11 0 0 0 0 0 0 0 0 0 0 0 0 0 0 0 0 0 0 0 0 0 0 0 0 0 0 0 0 0 0 0
Wind_Speed
20 21 22 22 23 24 24 25 25 25 24 24 24 23 22 23 24 20 18 18 20 23 22 19 16 15 13 12 13 11 14 16 17 14 16 14 14 16 19 20 20 22 22 20 12
21 22 22 23 24 25 25 26 26 26 25 25 24 24 23 23 21 19 14 19 20 21 18 18 15 15 13 13 13 12 15 16 16 16 17 15 17 18 21 22 24 24 22 18 17
21 22 23 24 24 25 26 27 27 26 26 25 24 24 23 22 22 17 16 20 20 20 17 16 15 15 15 14 13 14 17 18 18 17 16 19 21 21 23 26 23 23 19 18 20
21 22 23 24 25 26 28 28 27 27 26 24 22 22 22 20 25 16 19 20 19 19 18 16 15 15 16 17 15 18 17 19 20 17 19 21 22 25 22 26 25 21 20 18 21
22 23 24 25 26 27 28 28 28 27 26 23 19 20 20 21 22 18 20 20 20 19 18 16 15 16 18 18 19 20 21 21 20 20 22 22 24 27 28 26 25 23 21 19 19
22 24 24 25 27 28 28 29 28 27 24 21 19 19 20 24 18 20 20 21 21 19 19 18 16 17 19 20 20 21 22 24 25 24 24 25 28 24 26 23 22 22 22 21 22
23 24 25 26 27 28 29 29 28 24 22 19 18 19 21 21 19 20 21 20 20 19 19 18 18 18 18 22 20 23 29 28 25 24 24 24 30 24 24 24 24 24 23 24 25
24 25 26 27 28 29 30 29 25 22 20 19 18 19 22 19 18 19 19 19 19 19 18 18 19 19 20 20 23 26 26 30 23 19 21 22 31 28 24 23 27 26 26 26 26
24 26 28 29 29 30 31 28 21 20 19 18 19 20 23 17 17 17 18 19 19 20 20 19 19 19 20 23 27 26 30 29 28 20 23 23 33 28 26 27 30 30 29 26 26
25 27 28 30 29 30 31 22 20 19 18 18 20 21 19 21 19 19 19 19 20 22 23 21 20 21 20 20 28 28 28 28 28 25 26 31 32 39 33 33 35 33 28 25 25
27 28 29 30 28 29 24 21 23 23 21 23 24 25 24 21 19 20 21 21 22 23 25 23 24 23 21 17 21 24 27 32 29 28 34 36 36 42 39 36 31 28 25 22 22
28 29 30 29 26 25 20 22 22 22 28 24 24 23 21 19 24 20 20 22 22 25 22 25 27 26 24 22 22 25 28 32 32 26 32 37 44 48 35 24 24 26 23 21 19
30 30 29 28 24 20 20 20 19 22 27 26 22 21 20 18 21 21 19 21 24 26 24 25 25 22 21 23 24 26 28 31 32 34 29 37 39 29 24 24 22 23 22 19 17
31 30 28 27 19 18 20 19 18 20 26 22 20 18 18 19 21 19 20 21 24 28 26 27 25 24 26 28 25 32 25 25 27 31 32 29 40 31 26 24 21 21 20 19 16
32 26 25 22 18 19 18 19 17 19 31 18 18 16 18 21 24 23 20 21 26 27 25 28 27 26 27 26 21 27 23 26 27 27 31 28 28 26 26 24 23 20 18 16 16
28 20 19 16 16 16 17 17 18 22 27 19 17 19 23 23 25 24 23 20 22 28 26 28 26 26 26 24 21 18 24 25 24 26 30 23 22 28 22 21 23 22 20 17 18
24 20 16 16 16 16 15 16 23 24 19 20 19 20 26 27 26 25 26 26 27 32 29 26 25 22 23 26 23 23 26 29 27 25 24 19 24 18 20 21 21 23 20 19 22
23 19 16 14 14 14 14 18 25 22 21 20 22 26 26 25 23 25 26 26 22 22 27 28 28 23 21 22 25 21 21 20 25 24 26 23 20 21 19 20 19 19 20 21 21
24 16 15 17 17 14 14 23 23 20 21 22 23 25 24 21 23 25 24 24 20 17 19 23 23 19 22 21 18 20 21 19 20 22 25 20 20 25 18 19 17 20 20 21 23
21 17 16 19 17 13 15 20 20 19 19 21 24 21 24 23 23 23 23 20 20 18 17 20 27 21 23 18 15 18 16 17 17 22 24 22 23 19 21 20 23 28 23 21 21
17 18 18 19 15 13 17 18 19 17 18 19 20 21 22 23 21 22 21 22 16 20 20 17 18 26 21 15 20 18 16 15 15 17 21 25 22 15 18 19 28 37 30 22 20
19 21 18 16 14 16 16 17 16 16 17 19 19 19 20 19 22 21 18 21 17 20 22 16 22 30 21 15 18 22 17 12 15 17 17 19 18 17 16 20 27 22 25 24 19
21 21 18 16 17 16 17 16 16 16 16 17 17 16 17 19 21 16 18 18 18 18 21 18 21 28 22 19 20 22 15 12 13 15 12 15 14 18 17 14 16 8 20 18 18
21 23 21 20 21 20 18 17 16 18 17 16 18 16 18 20 17 20 18 20 18 19 18 18 16 23 27 21 14 13 13 12 11 12 11 2 4 10 9 16 19 5 7 12 14
21 23 20 22 23 22 21 20 17 18 17 15 19 16 16 21 21 19 17 23 22 20 18 19 26 21 31 32 33 35 30 2 5 1 3 8 4 12 15 13 6 3 6 8 10
22 21 20 23 21 20 19 20 17 16 15 18 20 20 15 19 19 24 20 20 27 21 21 19 27 26 31 29 25 32 29 5 11 4 12 14 17 16 12 9 6 4 6 8 9
20 19 19 21 20 21 22 20 20 16 19 18 18 19 21 21 22 23 23 22 21 24 24 23 25 27 26 21 26 25 19 7 5 5 11 13 16 14 12 9 7 5 7 8 10
Wind_Direction
343 341 343 341 339 336 334 330 328 328 330 331 332 335 341 337 334 351 353 359 355 340 336 340 351 345 343 335 331 327 313 303 305 304 311 313 310 310 312 309 312 312 310 317 326
337 335 336 337 335 332 331 328 326 325 328 327 331 332 336 337 345 347 4 356 353 348 352 350 351 343 339 333 325 315 306 304 309 308 310 312 309 309 308 308 308 308 310 313 313
339 335 333 334 332 331 329 326 324 324 327 329 329 330 336 341 341 350 360 352 352 352 355 350 347 341 330 329 318 315 303 306 307 309 311 308 307 309 308 306 306 307 306 307 308
334 335 333 333 332 329 325 322 323 324 326 331 335 335 336 344 325 352 347 347 349 348 349 348 343 333 325 317 316 307 307 304 307 308 308 306 309 307 305 307 313 312 311 307 306
330 330 329 328 328 328 326 323 322 323 325 333 340 340 341 332 328 342 342 340 341 343 342 340 336 331 319 318 312 305 305 305 304 304 303 306 305 306 306 307 310 311 312 307 308
326 324 326 326 325 325 325 324 324 327 332 337 339 341 336 323 340 337 338 336 336 336 335 334 332 328 320 315 309 313 309 303 301 300 302 301 305 311 313 317 310 311 309 308 308
324 323 323 323 322 321 321 324 328 335 337 340 342 340 332 326 337 337 334 333 333 332 331 332 329 322 321 313 315 312 304 303 300 299 299 306 301 303 310 314 312 310 308 307 308
319 321 320 320 320 320 322 324 333 337 340 340 341 340 328 339 340 339 340 337 339 336 334 332 329 322 316 317 312 307 307 300 308 306 306 307 301 311 316 313 311 310 308 307 309
317 317 317 318 319 320 320 324 336 340 342 343 339 337 326 346 341 345 344 337 335 331 330 329 328 320 319 309 306 306 299 298 303 306 306 303 304 313 317 313 311 309 307 305 307
318 317 317 318 318 319 321 334 338 340 341 341 336 332 333 330 335 337 334 332 327 324 321 322 322 315 315 309 302 302 299 300 299 308 303 302 301 305 310 310 309 309 308 306 306
317 316 318 319 319 321 333 335 328 326 330 321 321 319 322 329 333 329 327 324 320 318 313 315 309 304 308 306 310 310 304 298 302 306 302 302 305 305 311 311 313 316 316 312 310
315 314 316 317 320 327 338 329 328 327 319 324 322 319 326 333 324 329 330 323 322 315 316 311 304 305 308 308 305 306 305 300 303 307 307 306 301 304 316 322 326 326 327 323 322
309 309 312 317 323 331 336 334 341 337 320 319 325 326 330 338 328 331 336 329 320 315 312 307 312 319 311 307 305 305 303 302 301 304 310 308 308 321 327 328 330 334 337 338 334
307 303 309 315 325 330 328 339 347 345 320 322 325 332 340 341 327 338 337 328 321 316 315 310 313 306 303 301 302 301 309 306 306 309 304 321 309 320 325 328 331 336 341 344 345
303 301 303 317 324 324 335 341 350 342 312 330 331 349 343 333 331 333 340 330 317 315 316 312 312 307 303 303 306 304 310 308 306 308 310 317 315 327 331 332 338 339 339 346 347
313 311 312 324 330 334 338 342 338 320 308 325 332 331 331 332 331 335 334 334 329 317 311 306 313 311 306 308 307 311 307 307 310 308 306 322 327 330 336 343 343 347 348 348 344
319 319 322 324 321 332 340 334 312 304 326 322 325 329 326 325 329 337 333 325 320 317 315 318 315 316 311 301 303 299 294 293 297 304 310 332 328 328 338 340 345 345 351 351 346
319 323 327 330 333 335 336 317 301 310 309 324 322 323 322 328 330 334 336 332 336 327 319 317 314 322 321 303 297 293 282 287 295 306 315 331 331 344 353 350 353 356 356 352 348
303 320 320 319 318 324 320 300 307 312 317 319 323 323 325 331 333 336 340 339 344 349 333 328 324 336 319 304 309 288 281 294 303 317 321 334 339 339 0 2 3 1 358 352 351
303 311 313 306 308 317 311 304 310 317 321 322 318 326 322 327 332 337 341 347 346 348 343 338 321 328 302 318 320 287 291 300 316 316 324 337 342 352 359 3 357 353 360 0 1
306 304 306 303 306 309 304 307 313 320 320 321 322 320 323 325 330 333 339 342 2 343 338 344 339 297 321 325 284 283 292 312 327 330 332 337 351 5 5 8 352 334 357 9 12
298 294 305 302 299 304 302 311 317 318 322 320 324 321 320 326 328 333 341 334 358 351 335 345 328 287 324 324 294 271 298 324 322 332 345 350 358 13 21 13 360 291 10 15 27
289 290 303 295 292 292 304 310 314 315 316 323 322 328 329 327 328 341 347 348 350 355 334 348 329 287 317 306 288 274 305 325 333 340 353 0 12 10 22 26 6 25 26 35 40
287 286 288 286 289 292 295 300 303 312 310 317 318 324 323 322 329 333 348 342 347 348 347 342 347 314 292 296 306 310 324 330 332 342 359 354 262 237 245 276 291 269 68 60 58
283 283 287 285 281 282 289 299 299 304 306 314 311 313 320 316 323 328 347 327 334 341 346 338 319 328 284 252 257 255 235 282 205 259 18 25 92 228 255 260 244 135 93 86 83
281 284 286 285 284 281 282 292 294 299 304 304 302 309 312 314 319 319 334 337 311 331 331 342 315 323 288 282 283 253 233 183 183 166 195 201 224 230 213 175 173 160 121 103 98
283 290 288 285 282 280 280 286 291 295 300 303 304 305 305 308 312 315 317 324 325 315 317 324 315 308 290 291 273 268 286 350 3 38 137 138 160 203 202 213 208 189 129 113 105